THY6LZ LTCJ-LTFM

Flight info

Callsign THY6LZ
Flight time N/A
Altitude 36000
Route DYB UW73 GEM UL614 BAG UL605 YAVRU UA4 ERSEN
Aircraft A320/M-SDE3FGHIRWY/LB1

Departure

Time 2026-04-29 15:01
Airport Batman Airport (LTCJ)

Arrival

Time N/A
Airport İstanbul Airport (LTFM)
Time Latitude Longitude Altitude Speed Heading
2026-04-29 14:33 37.94576 41.12126 1839 ft 0 kts 251°
2026-04-29 14:57 37.94575 41.12124 1839 ft 1 kts 251°
2026-04-29 14:57 37.94571 41.12119 1839 ft 1 kts 228°
2026-04-29 14:57 37.94559 41.12108 1839 ft 3 kts 211°
2026-04-29 14:57 37.94535 41.12107 1839 ft 4 kts 168°
2026-04-29 14:58 37.94513 41.12134 1839 ft 5 kts 115°
2026-04-29 14:58 37.94519 41.12179 1839 ft 6 kts 89°
2026-04-29 14:58 37.94492 41.12219 1839 ft 7 kts 153°
2026-04-29 14:58 37.94444 41.12244 1839 ft 8 kts 158°
2026-04-29 14:59 37.94389 41.12271 1839 ft 9 kts 158°
2026-04-29 14:59 37.94327 41.12301 1839 ft 10 kts 162°
2026-04-29 14:59 37.94255 41.12324 1839 ft 11 kts 167°
2026-04-29 14:59 37.94179 41.12335 1840 ft 11 kts 156°
2026-04-29 15:00 37.94123 41.12392 1840 ft 11 kts 171°
2026-04-29 15:00 37.94092 41.12381 1840 ft 1 kts 207°
2026-04-29 15:00 37.94050 41.12357 1839 ft 28 kts 202°
2026-04-29 15:00 37.93598 41.12091 1837 ft 112 kts 205°
2026-04-29 15:01 37.92684 41.11542 1833 ft 175 kts 204°
2026-04-29 15:01 37.91510 41.10842 2397 ft 187 kts 206°
2026-04-29 15:01 37.90366 41.10114 3374 ft 182 kts 207°
2026-04-29 15:01 37.89486 41.08968 3924 ft 192 kts 249°
2026-04-29 15:02 37.89502 41.07228 4153 ft 214 kts 295°
2026-04-29 15:02 37.90311 41.05530 4404 ft 238 kts 303°
2026-04-29 15:02 37.91255 41.03679 4780 ft 261 kts 302°
2026-04-29 15:02 37.92129 41.01616 5471 ft 270 kts 287°
2026-04-29 15:03 37.92327 40.99254 6394 ft 271 kts 270°
2026-04-29 15:03 37.92241 40.96868 7264 ft 272 kts 268°
2026-04-29 15:03 37.92102 40.94466 8093 ft 275 kts 267°
2026-04-29 15:03 37.91945 40.92046 8932 ft 277 kts 267°
2026-04-29 15:04 37.91784 40.89607 9751 ft 279 kts 268°
2026-04-29 15:04 37.91624 40.87139 10357 ft 289 kts 268°
2026-04-29 15:04 37.91459 40.84511 10548 ft 311 kts 267°
2026-04-29 15:04 37.91285 40.81675 10694 ft 333 kts 267°
2026-04-29 15:05 37.91103 40.78692 11098 ft 344 kts 267°
2026-04-29 15:05 37.90975 40.76646 11486 ft 347 kts 267°
2026-04-29 15:05 37.90720 40.72579 12277 ft 352 kts 266°
2026-04-29 15:05 37.90528 40.69479 12931 ft 355 kts 266°
2026-04-29 15:06 37.90332 40.66348 13575 ft 358 kts 266°
2026-04-29 15:06 37.90131 40.63196 14130 ft 361 kts 266°
2026-04-29 15:06 37.89926 40.60011 14665 ft 364 kts 266°
2026-04-29 15:06 37.89718 40.56803 15182 ft 367 kts 266°
2026-04-29 15:07 37.89508 40.53563 15695 ft 370 kts 266°
2026-04-29 15:07 37.89299 40.50292 16209 ft 373 kts 266°
2026-04-29 15:07 37.89088 40.47003 16743 ft 376 kts 266°
2026-04-29 15:07 37.88876 40.43680 17282 ft 380 kts 266°
2026-04-29 15:08 37.88661 40.40339 17816 ft 383 kts 266°
2026-04-29 15:08 37.88443 40.36965 18317 ft 386 kts 266°
2026-04-29 15:08 37.88297 40.34713 18621 ft 388 kts 266°
2026-04-29 15:08 37.88069 40.31303 19091 ft 391 kts 266°
2026-04-29 15:09 37.87997 40.30251 19269 ft 391 kts 266°
2026-04-29 15:09 37.87762 40.26808 19749 ft 394 kts 266°
2026-04-29 15:09 37.87593 40.23335 20217 ft 396 kts 271°
2026-04-29 15:09 37.87865 40.19873 20671 ft 398 kts 281°
2026-04-29 15:10 37.88629 40.16498 21108 ft 400 kts 290°
2026-04-29 15:10 37.89605 40.13194 21535 ft 402 kts 290°
2026-04-29 15:10 37.90583 40.09850 21962 ft 404 kts 290°
2026-04-29 15:10 37.91552 40.06506 22394 ft 406 kts 290°
2026-04-29 15:11 37.92523 40.03136 22838 ft 408 kts 290°
2026-04-29 15:11 37.93498 39.99748 23260 ft 410 kts 290°
2026-04-29 15:11 37.94463 39.96395 23641 ft 412 kts 290°
2026-04-29 15:11 37.95460 39.92930 23974 ft 414 kts 290°
2026-04-29 15:12 37.96449 39.89493 24304 ft 416 kts 290°
2026-04-29 15:12 37.97443 39.86040 24629 ft 418 kts 290°
2026-04-29 15:12 37.98439 39.82577 24942 ft 420 kts 290°
2026-04-29 15:12 37.99441 39.79086 25288 ft 421 kts 291°
2026-04-29 15:13 38.00428 39.75633 25638 ft 423 kts 291°
2026-04-29 15:13 38.01431 39.72125 25971 ft 424 kts 291°
2026-04-29 15:13 38.02451 39.68551 26324 ft 426 kts 291°
2026-04-29 15:13 38.03461 39.65008 26655 ft 428 kts 291°
2026-04-29 15:14 38.04476 39.61446 26984 ft 430 kts 291°
2026-04-29 15:14 38.05477 39.57926 27428 ft 429 kts 291°
2026-04-29 15:14 38.06487 39.54368 27920 ft 427 kts 290°
2026-04-29 15:14 38.07491 39.50832 28409 ft 425 kts 291°
2026-04-29 15:15 38.08491 39.47310 28888 ft 424 kts 291°
2026-04-29 15:15 38.09490 39.43790 29366 ft 422 kts 291°
2026-04-29 15:15 38.10483 39.40289 29850 ft 421 kts 291°
2026-04-29 15:15 38.11473 39.36796 30275 ft 419 kts 290°
2026-04-29 15:16 38.12457 39.33316 30682 ft 418 kts 290°
2026-04-29 15:16 38.13433 39.29843 31058 ft 417 kts 290°
2026-04-29 15:16 38.14407 39.26371 31505 ft 416 kts 290°
2026-04-29 15:16 38.15372 39.22921 31917 ft 414 kts 290°
2026-04-29 15:17 38.16330 39.19473 32335 ft 413 kts 290°
2026-04-29 15:17 38.17272 39.16032 32755 ft 412 kts 290°
2026-04-29 15:17 38.18208 39.12590 33182 ft 411 kts 290°
2026-04-29 15:17 38.19141 39.09167 33589 ft 410 kts 290°
2026-04-29 15:18 38.20078 39.05740 33985 ft 409 kts 290°
2026-04-29 15:18 38.21024 39.02338 34347 ft 408 kts 290°
2026-04-29 15:18 38.21977 38.98943 34674 ft 407 kts 290°
2026-04-29 15:18 38.22932 38.95556 34982 ft 406 kts 290°
2026-04-29 15:19 38.23880 38.92185 35284 ft 405 kts 289°
2026-04-29 15:19 38.24827 38.88806 35560 ft 405 kts 289°
2026-04-29 15:19 38.25767 38.85424 35827 ft 405 kts 289°
2026-04-29 15:19 38.26706 38.82035 35944 ft 407 kts 289°
2026-04-29 15:20 38.27657 38.78612 35963 ft 413 kts 289°
2026-04-29 15:20 38.29596 38.71646 35962 ft 420 kts 289°
2026-04-29 15:21 38.31554 38.64624 35959 ft 421 kts 289°
2026-04-29 15:21 38.33508 38.57605 35956 ft 421 kts 289°
2026-04-29 15:22 38.35454 38.50575 35954 ft 421 kts 289°
2026-04-29 15:22 38.37399 38.43551 35961 ft 421 kts 289°
2026-04-29 15:23 38.39336 38.36507 35960 ft 421 kts 289°
2026-04-29 15:23 38.41265 38.29471 35962 ft 420 kts 289°
2026-04-29 15:24 38.43196 38.22430 35969 ft 420 kts 289°
2026-04-29 15:24 38.45116 38.15397 35972 ft 420 kts 289°
2026-04-29 15:25 38.47101 38.08396 35966 ft 419 kts 291°
2026-04-29 15:25 38.49420 38.01569 35965 ft 419 kts 294°
2026-04-29 15:26 38.51844 37.94801 35969 ft 419 kts 294°
2026-04-29 15:26 38.54208 37.88004 35971 ft 419 kts 293°
2026-04-29 15:27 38.56526 37.81179 35980 ft 418 kts 292°
2026-04-29 15:27 38.58837 37.74357 35991 ft 418 kts 293°
2026-04-29 15:28 38.61153 37.67536 36005 ft 418 kts 293°
2026-04-29 15:28 38.63450 37.60720 36006 ft 417 kts 292°
2026-04-29 15:29 38.65740 37.53904 36008 ft 417 kts 292°
2026-04-29 15:30 38.70316 37.40302 36020 ft 415 kts 292°
2026-04-29 15:30 38.72591 37.33506 36025 ft 415 kts 292°
2026-04-29 15:31 38.74860 37.26716 36030 ft 414 kts 292°
2026-04-29 15:31 38.77122 37.19925 36027 ft 414 kts 292°
2026-04-29 15:32 38.79378 37.13135 36039 ft 414 kts 292°
2026-04-29 15:32 38.81633 37.06345 36047 ft 414 kts 292°
2026-04-29 15:33 38.83888 36.99548 36048 ft 414 kts 292°
2026-04-29 15:33 38.86137 36.92755 36053 ft 414 kts 292°
2026-04-29 15:34 38.88380 36.85962 36057 ft 413 kts 292°
2026-04-29 15:34 38.90617 36.79169 36057 ft 413 kts 292°
2026-04-29 15:35 38.92852 36.72362 36060 ft 413 kts 292°
2026-04-29 15:35 38.95084 36.65560 36067 ft 413 kts 292°
2026-04-29 15:36 38.97308 36.58764 36064 ft 412 kts 292°
2026-04-29 15:36 38.99520 36.51965 36065 ft 412 kts 292°
2026-04-29 15:37 39.01736 36.45163 36072 ft 412 kts 292°
2026-04-29 15:37 39.03947 36.38365 36070 ft 411 kts 292°
2026-04-29 15:38 39.06151 36.31569 36069 ft 411 kts 292°
2026-04-29 15:38 39.08325 36.24828 36066 ft 411 kts 292°
2026-04-29 15:39 39.10508 36.18047 36065 ft 410 kts 292°
2026-04-29 15:39 39.12690 36.11257 36065 ft 410 kts 292°
2026-04-29 15:40 39.14865 36.04470 36064 ft 410 kts 292°
2026-04-29 15:40 39.16988 35.97650 36063 ft 410 kts 290°
2026-04-29 15:41 39.19004 35.90783 36065 ft 409 kts 290°
2026-04-29 15:41 39.21003 35.83932 36067 ft 409 kts 290°
2026-04-29 15:42 39.22785 35.77993 36064 ft 408 kts 290°
2026-04-29 15:42 39.24790 35.71149 36066 ft 408 kts 290°
2026-04-29 15:43 39.26792 35.64255 36072 ft 408 kts 290°
2026-04-29 15:43 39.28775 35.57458 36061 ft 407 kts 290°
2026-04-29 15:44 39.30775 35.50629 36062 ft 406 kts 290°
2026-04-29 15:44 39.32770 35.43816 36045 ft 406 kts 290°
2026-04-29 15:45 39.34762 35.36992 36037 ft 406 kts 290°
2026-04-29 15:45 39.36743 35.30159 36032 ft 406 kts 290°
2026-04-29 15:46 39.38708 35.23332 36023 ft 406 kts 290°
2026-04-29 15:46 39.40677 35.16491 36017 ft 405 kts 290°
2026-04-29 15:47 39.42689 35.09678 36010 ft 406 kts 291°
2026-04-29 15:47 39.44717 35.02863 36000 ft 406 kts 291°
2026-04-29 15:48 39.46732 34.96036 35996 ft 406 kts 290°
2026-04-29 15:48 39.48394 34.90353 35998 ft 406 kts 290°
2026-04-29 15:49 39.50400 34.83511 35999 ft 406 kts 290°
2026-04-29 15:49 39.52404 34.76663 36004 ft 406 kts 290°
2026-04-29 15:50 39.54394 34.69825 36004 ft 406 kts 290°
2026-04-29 15:50 39.56381 34.62980 36007 ft 406 kts 290°
2026-04-29 15:51 39.58361 34.56128 36012 ft 405 kts 290°
2026-04-29 15:51 39.60340 34.49288 36016 ft 405 kts 290°
2026-04-29 15:52 39.62319 34.42406 36014 ft 404 kts 290°
2026-04-29 15:52 39.64285 34.35583 36012 ft 404 kts 290°
2026-04-29 15:53 39.66248 34.28742 36020 ft 404 kts 290°
2026-04-29 15:53 39.68200 34.21908 36018 ft 404 kts 290°
2026-04-29 15:54 39.70142 34.15064 36019 ft 403 kts 290°
2026-04-29 15:54 39.72083 34.08231 36018 ft 403 kts 290°
2026-04-29 15:55 39.74022 34.01398 36017 ft 403 kts 290°
2026-04-29 15:55 39.75955 33.94565 36019 ft 403 kts 289°
2026-04-29 15:56 39.77814 33.87708 36018 ft 402 kts 285°
2026-04-29 15:56 39.79243 33.80672 36029 ft 402 kts 285°
2026-04-29 15:57 39.80674 33.73648 36039 ft 402 kts 285°
2026-04-29 15:57 39.82101 33.66620 36034 ft 402 kts 285°
2026-04-29 15:58 39.83643 33.59645 36030 ft 402 kts 291°
2026-04-29 15:58 39.85689 33.52876 36029 ft 402 kts 291°
2026-04-29 15:59 39.87722 33.46098 36034 ft 402 kts 290°
2026-04-29 15:59 39.89746 33.39321 36044 ft 402 kts 290°
2026-04-29 16:00 39.91776 33.32536 36039 ft 402 kts 290°
2026-04-29 16:00 39.93803 33.25752 36045 ft 401 kts 290°
2026-04-29 16:01 39.95818 33.18974 36046 ft 401 kts 290°
2026-04-29 16:01 39.97829 33.12185 36058 ft 401 kts 290°
2026-04-29 16:02 39.99836 33.05405 36056 ft 400 kts 290°
2026-04-29 16:02 40.01832 32.98633 36054 ft 400 kts 290°
2026-04-29 16:03 40.03821 32.91846 36054 ft 400 kts 290°
2026-04-29 16:03 40.05794 32.85103 36056 ft 400 kts 290°
2026-04-29 16:04 40.08280 32.78572 36054 ft 402 kts 303°
2026-04-29 16:04 40.11486 32.72589 36053 ft 402 kts 303°
2026-04-29 16:05 40.14656 32.66626 36057 ft 402 kts 303°
2026-04-29 16:05 40.17833 32.60611 36056 ft 402 kts 303°
2026-04-29 16:06 40.21031 32.54557 36061 ft 402 kts 303°
2026-04-29 16:06 40.24209 32.48539 36068 ft 402 kts 303°
2026-04-29 16:07 40.27382 32.42521 36067 ft 400 kts 303°
2026-04-29 16:07 40.28940 32.39570 36047 ft 387 kts 303°
2026-04-29 16:07 40.30444 32.36718 36056 ft 374 kts 302°
2026-04-29 16:08 40.33365 32.31151 36067 ft 371 kts 302°
2026-04-29 16:08 40.36287 32.25570 36068 ft 371 kts 302°
2026-04-29 16:09 40.39188 32.20037 36084 ft 371 kts 302°
2026-04-29 16:09 40.42118 32.14413 36069 ft 371 kts 302°
2026-04-29 16:10 40.45026 32.08820 36091 ft 371 kts 302°
2026-04-29 16:10 40.47929 32.03218 36103 ft 371 kts 302°
2026-04-29 16:11 40.50824 31.97630 36097 ft 370 kts 302°
2026-04-29 16:11 40.53699 31.92073 36097 ft 369 kts 302°
2026-04-29 16:12 40.56597 31.86451 36094 ft 369 kts 302°
2026-04-29 16:12 40.58922 31.80498 36109 ft 366 kts 288°
2026-04-29 16:13 40.60494 31.74111 36103 ft 367 kts 288°
2026-04-29 16:13 40.62082 31.67733 36108 ft 366 kts 288°
2026-04-29 16:14 40.63655 31.61360 36109 ft 366 kts 288°
2026-04-29 16:14 40.65225 31.54992 36116 ft 366 kts 288°
2026-04-29 16:15 40.66792 31.48614 36123 ft 366 kts 288°
2026-04-29 16:15 40.68345 31.42278 36123 ft 366 kts 288°
2026-04-29 16:16 40.69914 31.35856 36130 ft 366 kts 288°
2026-04-29 16:16 40.71457 31.29502 36130 ft 366 kts 288°
2026-04-29 16:17 40.73012 31.23104 36050 ft 368 kts 288°
2026-04-29 16:17 40.73796 31.19889 35700 ft 365 kts 288°
2026-04-29 16:17 40.74562 31.16755 35614 ft 355 kts 288°
2026-04-29 16:18 40.76053 31.10614 35476 ft 349 kts 288°